sat.trackr.live / text

‹ back to catalog

QIANFAN-138

NORAD 69084 · 2026-104M

PAYLOAD ACTIVE UNKNOWN

§ Identity

Operator
Country
PRC
Launch date
2026-05-12
Launch site
TAISC
Launch vehicle
Mass (kg)
RCS (m²)

External: N2YO · Heavens-Above · Gunter

§ Orbital elements

Epoch: 2026-09-20T05:04:11.772768Z

Period
106.59 min
Inclination
88.9897°
Eccentricity
0.0002532
Mean motion
13.51021800 rev/d
Perigee alt
1,066.6 km
Apogee alt
1,070.4 km
Semi-major
7,446.6 km
B*
7.4327e-5
RAAN
331.7948°
Arg perigee
106.0491°
Mean anomaly
254.0939°
Rev number
1,797

§ Raw data

QIANFAN-1381 69084U 26104M   26263.21124737  .00000060  00000+0  74327-4 0  99982 69084  88.9897 331.7948 0002532 106.0491 254.0939 13.51021800 17973

JSON: /api/v1/satellites/69084 · /tle

For live sub-satellite position, see the globe view (requires WebGL).

§ Visibility from observer

Set your observer location to see the next 7 days of passes ≥ 10°. The values pass through the URL so the page stays shareable.

No JS? Fill the form by hand. The geolocation button needs JavaScript.